Cloud_Cover
3 1 5 4 5 5 5 5 5 5 0 0 0 2 96 99 100 100 100 100 100 100 100 100 100 100 100 100 99 100 83 48 64 38 5 5 5 5 0 0 3 5 7
0 0 0 0 6 5 5 5 5 1 0 0 0 0 5 36 94 100 100 100 100 100 100 100 100 100 100 100 100 100 100 100 28 5 5 5 5 6 5 0 82 5 1
0 0 0 0 2 5 5 5 5 0 0 0 2 5 29 5 16 100 100 100 100 100 100 100 100 100 100 100 100 100 100 100 24 41 83 70 46 100 58 13 4 5 12
0 0 2 0 5 5 4 5 1 0 2 0 0 0 0 0 0 85 100 100 100 100 100 100 100 100 100 100 100 100 100 100 63 7 77 30 100 100 100 100 16 13 5
4 26 9 0 2 4 0 0 0 0 0 3 3 5 5 3 1 5 100 100 100 100 100 100 100 100 100 100 100 100 100 100 7 39 100 59 48 100 100 100 14 5 5
27 72 1 5 0 1 0 3 0 0 0 0 2 5 5 5 0 60 80 100 100 100 100 100 100 100 100 98 100 100 100 100 100 55 100 65 97 100 100 100 91 3 5
20 68 1 0 0 1 0 6 14 5 0 2 4 4 2 4 5 42 71 100 100 100 100 100 100 95 97 98 100 100 100 100 100 84 100 54 17 100 100 100 100 100 10
21 56 71 0 0 0 1 1 1 5 3 0 2 5 0 3 8 6 36 63 79 100 100 100 100 100 100 21 63 100 100 100 100 71 63 78 85 86 100 100 100 100 62
28 85 57 30 7 4 28 5 5 4 31 3 25 1 0 0 0 5 22 96 77 100 100 100 100 100 100 87 98 100 99 100 97 81 98 58 99 100 100 100 100 100 84
40 44 42 96 73 72 23 47 31 96 56 5 0 10 28 4 0 4 57 22 100 100 100 100 99 99 74 99 94 54 69 51 100 100 100 98 100 86 100 100 100 100 69
26 33 71 97 94 100 90 39 54 65 5 5 5 5 6 7 15 16 10 41 65 95 98 88 97 99 100 100 46 100 93 87 100 100 100 65 50 84 100 100 100 100 100
2 15 24 37 39 92 24 68 35 94 25 18 14 70 100 97 66 68 6 13 46 82 82 69 58 99 96 99 100 99 92 100 100 100 100 70 100 63 100 100 100 100 100
0 11 18 20 26 26 45 53 100 67 32 64 66 100 100 92 99 100 94 59 39 66 92 97 22 45 99 100 99 83 41 31 90 100 93 61 98 65 100 93 95 100 100
0 0 11 23 67 31 96 10 58 100 70 100 100 100 99 100 94 100 100 100 100 65 72 92 100 100 100 97 100 100 100 100 75 88 90 68 47 100 100 100 100 100 88
0 0 7 52 29 35 100 100 100 100 100 100 100 100 100 100 100 100 100 100 100 100 100 52 45 88 100 100 100 100 100 66 88 96 98 100 100 100 100 100 100 100 96
2 98 80 96 82 93 100 100 86 100 100 100 95 100 100 100 100 100 88 100 86 55 100 100 100 81 75 65 97 64 81 100 95 99 100 100 100 100 100 100 100 100 100
10 82 100 100 100 100 100 100 99 100 100 100 100 100 100 100 100 92 94 60 41 100 80 100 81 48 37 100 94 33 46 92 100 100 100 100 100 100 100 97 100 100 100
57 100 100 100 100 100 99 100 100 100 99 100 100 100 100 100 90 56 86 68 58 87 79 56 92 100 95 65 72 28 63 80 67 39 98 100 100 100 100 100 100 100 100
100 100 100 100 100 100 83 100 100 100 100 100 100 100 100 94 100 100 78 31 81 100 64 46 98 81 89 96 97 100 85 61 76 31 42 73 55 94 100 100 100 100 100
100 100 100 100 100 100 84 96 100 100 100 100 100 100 100 100 96 100 100 90 99 44 100 92 82 26 30 38 62 86 100 72 92 88 43 83 32 8 6 62 78 80 99
100 100 100 100 100 100 100 100 100 100 100 100 100 100 100 100 100 100 100 100 42 100 68 42 39 28 16 21 31 27 52 48 64 7 5 48 99 84 56 24 26 20 64
100 100 100 100 100 100 58 32 59 83 100 100 100 100 100 100 100 100 100 100 100 100 100 100 92 39 54 90 24 70 14 95 48 61 41 32 30 99 84 59 86 100 94
100 100 100 100 100 100 100 71 49 5 82 100 100 100 100 100 100 100 100 100 100 75 74 78 93 44 16 54 56 86 14 89 30 80 39 86 60 100 100 100 92 80 98
100 100 100 100 100 100 100 8 22 76 100 100 100 100 100 100 100 100 100 100 92 74 100 96 58 35 86 70 88 80 72 14 11 73 95 93 89 77 100 100 100 97 100
20 100 50 78 10 5 16 0 25 70 100 100 100 100 100 95 100 99 100 100 100 100 100 100 46 81 99 84 98 38 76 82 26 34 96 71 34 100 100 100 100 100 100
5 7 5 77 54 3 2 3 40 89 100 100 100 100 100 100 100 100 100 100 100 84 89 32 36 50 40 50 36 81 74 31 16 33 94 95 61 100 100 100 100 100 100